Meadow Lake, CO

11:53 PM MDT on April 24, 2017 (GMT -0600)
Meadow Lake

Weather History for KFLY - August, 2012

Change the Weather History Date:

Wednesday, August 1, 2012

  Actual Average (KCOS) Record (KCOS)
Temperature  
Mean Temperature 76 °F -  
Max Temperature 90 °F 83 °F 99 °F (2008)
Min Temperature 61 °F 57 °F 45 °F (1965)
Cooling Degree Days 10    
Growing Degree Days 26 (Base 50)    
Moisture  
Dew Point 48 °F    
Average Humidity 47    
Maximum Humidity 80    
Minimum Humidity 17    
Precipitation  
Precipitation 0.00 in - - ()
Sea Level Pressure  
Sea Level Pressure 30.27 in    
Wind  
Wind Speed 9 mph (WNW)    
Max Wind Speed 24 mph    
Max Gust Speed 37 mph    
Visibility 10 miles    
Events Rain , Thunderstorm    
Averages and records for this station are not official NWS values.
T = Trace of Precipitation, MM = Missing Value Source: NWS Daily Summary

Daily Weather History Graph

Daily Weather History Graph

Search for Another Location

Airport or City:

Trip Planner

Search our weather history database for the weather conditions in past years. The results will help you decide how hot, cold, wet, or windy it might be!

Date:

Astronomy

Aug. 01, 2012 Rise Set
Actual Time 5:59 AM MDT 8:08 PM MDT
Civil Twilight 5:29 AM MDT 8:38 PM MDT
Nautical Twilight 4:53 AM MDT 9:14 PM MDT
Astronomical Twilight 4:13 AM MDT 9:54 PM MDT
Moon 7:41 PM MDT (8/1) 5:31 AM MDT (8/1)
Length of Visible Light 15h 08m
Length of Day
14h 09m
Full, 100% of the Moon is Illuminated
Aug 1
Full
Aug 1
Full
Aug 9
Last Quarter
Aug 17
New
Aug 24
First Quarter

Hourly Weather History & Observations

Time (MDT) Temp. Dew Point Humidity Pressure Visibility Wind Dir Wind Speed Gust Speed Precip Events Conditions
12:14 AM 66.4 °F 51.8 °F 59% 30.35 in 10.0 mi WSW 8.1 mph - N/A   Mostly Cloudy
12:34 AM 66.4 °F 51.4 °F 59% 30.35 in 10.0 mi WSW 8.1 mph - N/A   Mostly Cloudy
12:54 AM 65.8 °F 52.5 °F 62% 30.35 in 10.0 mi WSW 5.8 mph - N/A   Scattered Clouds
1:14 AM 65.3 °F 53.1 °F 65% 30.36 in 10.0 mi SSW 8.1 mph 17.3 mph N/A   Clear
1:34 AM 63.7 °F 53.8 °F 70% 30.35 in 10.0 mi South 5.8 mph - N/A   Clear
1:54 AM 62.2 °F 54.3 °F 75% 30.34 in 10.0 mi SSW 4.6 mph - N/A   Clear
2:14 AM 61.0 °F 54.7 °F 80% 30.33 in 10.0 mi WNW 6.9 mph - N/A   Clear
2:34 AM 62.1 °F 54.5 °F 76% 30.31 in 10.0 mi NW 3.5 mph - N/A   Clear
2:54 AM 63.0 °F 54.7 °F 74% 30.30 in 10.0 mi NNW 3.5 mph - N/A   Clear
3:14 AM 63.1 °F 55.0 °F 75% 30.30 in 10.0 mi WNW 10.4 mph - N/A   Mostly Cloudy
3:34 AM 63.5 °F 55.4 °F 75% 30.29 in 10.0 mi WNW 13.8 mph - N/A   Scattered Clouds
3:54 AM 64.8 °F 53.2 °F 66% 30.28 in 10.0 mi NW 10.4 mph - N/A   Clear
4:14 AM 64.2 °F 51.8 °F 64% 30.28 in 10.0 mi NW 10.4 mph - N/A   Scattered Clouds
4:34 AM 63.0 °F 49.8 °F 62% 30.28 in 10.0 mi West 8.1 mph - N/A   Scattered Clouds
4:54 AM 63.7 °F 49.6 °F 60% 30.28 in 10.0 mi NE 3.5 mph - N/A   Clear
5:14 AM 64.2 °F 49.1 °F 58% 30.27 in 10.0 mi West 10.4 mph - N/A   Clear
5:34 AM 65.5 °F 46.2 °F 50% 30.27 in 10.0 mi NW 11.5 mph - N/A   Clear
5:54 AM 66.0 °F 45.5 °F 48% 30.28 in 10.0 mi WNW 9.2 mph - N/A   Clear
6:14 AM 67.1 °F 44.6 °F 44% 30.28 in 10.0 mi NW 9.2 mph - N/A   Clear
6:34 AM 65.3 °F 45.3 °F 48% 30.28 in 10.0 mi WNW 10.4 mph 17.3 mph N/A   Clear
6:54 AM 66.6 °F 46.2 °F 48% 30.28 in 10.0 mi West 5.8 mph - N/A   Clear
7:14 AM 70.2 °F 45.7 °F 41% 30.28 in 10.0 mi West 5.8 mph - N/A   Clear
7:34 AM 71.8 °F 47.1 °F 41% 30.28 in 10.0 mi SW 3.5 mph - N/A   Clear
7:54 AM 73.4 °F 46.2 °F 38% 30.28 in 10.0 mi WNW 4.6 mph - N/A   Clear
8:14 AM 76.1 °F 44.1 °F 32% 30.30 in 10.0 mi WNW 3.5 mph - N/A   Clear
8:34 AM 77.2 °F 43.5 °F 30% 30.30 in 10.0 mi West 9.2 mph - N/A   Clear
8:54 AM 78.3 °F 43.5 °F 29% 30.30 in 10.0 mi WSW 6.9 mph - N/A   Clear
9:14 AM 79.5 °F 44.4 °F 29% 30.30 in 10.0 mi WSW 5.8 mph - N/A   Clear
9:34 AM 80.1 °F 44.4 °F 28% 30.29 in 10.0 mi WSW 4.6 mph - N/A   Clear
9:54 AM 81.1 °F 44.8 °F 28% 30.29 in 10.0 mi SW 4.6 mph - N/A   Clear
10:14 AM 82.6 °F 45.1 °F 27% 30.30 in 10.0 mi ENE 3.5 mph - N/A   Clear
10:34 AM 83.1 °F 43.5 °F 25% 30.29 in 10.0 mi ENE 5.8 mph - N/A   Clear
11:14 AM 84.0 °F 43.3 °F 24% 30.29 in 10.0 mi East 5.8 mph - N/A   Clear
11:34 AM 84.7 °F 43.5 °F 23% 30.29 in 10.0 mi East 4.6 mph - N/A   Clear
12:14 PM 85.3 °F 44.1 °F 24% 30.27 in 10.0 mi East 6.9 mph - N/A   Clear
12:34 PM 86.2 °F 47.7 °F 26% 30.26 in 10.0 mi SE 10.4 mph 16.1 mph N/A   Clear
12:54 PM 85.8 °F 46.9 °F 26% 30.26 in 10.0 mi SE 9.2 mph 17.3 mph N/A   Clear
1:14 PM 86.4 °F 45.3 °F 24% 30.25 in 10.0 mi SE 11.5 mph 19.6 mph N/A   Clear
1:34 PM 87.3 °F 44.4 °F 22% 30.24 in 10.0 mi SSE 11.5 mph 18.4 mph N/A   Clear
1:54 PM 88.2 °F 45.0 °F 22% 30.24 in 10.0 mi SSE 12.7 mph 18.4 mph N/A   Clear
2:14 PM 87.4 °F 43.7 °F 22% 30.23 in 10.0 mi South 13.8 mph 20.7 mph N/A   Clear
2:34 PM 88.9 °F 43.0 °F 20% 30.23 in 10.0 mi SSE 11.5 mph 19.6 mph N/A   Clear
2:54 PM 88.5 °F 41.2 °F 19% 30.22 in 10.0 mi SSW 12.7 mph 19.6 mph N/A   Clear
3:14 PM 88.9 °F 40.1 °F 18% 30.22 in 10.0 mi SE 5.8 mph 20.7 mph N/A   Clear
3:34 PM 88.3 °F 41.4 °F 19% 30.21 in 10.0 mi South 8.1 mph 20.7 mph N/A   Clear
3:54 PM 90.1 °F 39.9 °F 17% 30.21 in 10.0 mi SE 9.2 mph 19.6 mph N/A   Clear
4:14 PM 87.6 °F 39.9 °F 19% 30.20 in 10.0 mi SE 8.1 mph 18.4 mph N/A   Scattered Clouds
4:34 PM 83.1 °F 45.3 °F 26% 30.24 in 10.0 mi NW 19.6 mph 28.8 mph N/A Thunderstorm Overcast
4:54 PM 68.9 °F 54.3 °F 60% 30.26 in 10.0 mi NW 19.6 mph 29.9 mph N/A Rain , Thunderstorm Rain
5:14 PM 67.1 °F 52.2 °F 59% 30.25 in 10.0 mi NNW 20.7 mph 35.7 mph N/A Rain Light Rain
5:34 PM 68.4 °F 50.9 °F 54% 30.22 in 10.0 mi North 18.4 mph 26.5 mph N/A   Mostly Cloudy
5:54 PM 67.6 °F 52.7 °F 59% 30.22 in 10.0 mi North 17.3 mph 26.5 mph N/A Rain Light Rain
6:14 PM 69.1 °F 52.0 °F 54% 30.23 in 10.0 mi North 19.6 mph 28.8 mph N/A   Mostly Cloudy
6:34 PM 71.2 °F 50.9 °F 49% 30.23 in 10.0 mi North 17.3 mph 28.8 mph N/A   Overcast
6:54 PM 73.2 °F 49.3 °F 43% 30.24 in 10.0 mi North 21.9 mph 32.2 mph N/A   Overcast
7:14 PM 70.3 °F 51.6 °F 51% 30.23 in 10.0 mi North 24.2 mph 35.7 mph N/A   Scattered Clouds
7:34 PM 67.8 °F 51.8 °F 56% 30.25 in 10.0 mi North 17.3 mph 28.8 mph N/A Thunderstorm Clear
7:54 PM 66.6 °F 52.0 °F 59% 30.27 in 10.0 mi NW 19.6 mph 32.2 mph N/A   Mostly Cloudy
8:34 PM 65.1 °F 53.4 °F 66% 30.27 in 10.0 mi NNW 18.4 mph 25.3 mph N/A   Scattered Clouds
8:54 PM 65.3 °F 52.5 °F 63% 30.27 in 10.0 mi North 17.3 mph 26.5 mph N/A   Clear
9:14 PM 65.5 °F 51.8 °F 61% 30.26 in 10.0 mi North 16.1 mph 23.0 mph N/A   Clear
9:34 PM 65.7 °F 51.8 °F 61% 30.27 in 10.0 mi North 15.0 mph 23.0 mph N/A   Mostly Cloudy
9:54 PM 65.3 °F 52.7 °F 64% 30.28 in 10.0 mi North 13.8 mph 26.5 mph N/A   Overcast
10:14 PM 65.7 °F 52.3 °F 62% 30.27 in 10.0 mi North 15.0 mph 23.0 mph N/A Thunderstorm Overcast
10:34 PM 63.1 °F 52.7 °F 69% 30.24 in 10.0 mi NNW 20.7 mph 36.8 mph N/A   Overcast
11:14 PM 64.4 °F 50.5 °F 61% 30.23 in 10.0 mi NW 19.6 mph 25.3 mph N/A   Mostly Cloudy
11:34 PM 66.9 °F 48.6 °F 52% 30.22 in 10.0 mi WNW 11.5 mph 19.6 mph N/A   Mostly Cloudy
11:54 PM 66.6 °F 48.9 °F 53% 30.24 in 10.0 mi SW 9.2 mph - N/A   Mostly Cloudy